This is the latest recevied weather packets stored in our database for station/object VR2OT-10. If no packets are shown the sender has not sent any weather packets the latest 10 day(s).
| Time | Temp. | Humidity | Pressure | Rain* | Wind** | Luminosity | Snow |
|---|---|---|---|---|---|---|---|
| 1787546431 | 31.11° C | 73% | 1001.1 hPa | - | 3.13 m/s, 270° | - | - |
| 1787545533 | 31.11° C | 72% | 1001.3 hPa | - | 4.02 m/s, 270° | - | - |
| 1787544634 | 31.67° C | 71% | 1001.5 hPa | - | 4.92 m/s, 270° | - | - |
| 1787543732 | 31.67° C | 73% | 1001.6 hPa | - | 3.13 m/s, 270° | - | - |
| 1787542834 | 31.67° C | 74% | 1001.6 hPa | - | 4.02 m/s, 270° | - | - |
| 1787540133 | 31.11° C | 75% | 1001.8 hPa | - | 3.58 m/s, 270° | - | - |
| 1787539234 | 31.11° C | 76% | 1001.8 hPa | - | 2.24 m/s, 225° | - | - |
| 1787538332 | 30.56° C | 76% | 1001.8 hPa | - | 2.68 m/s, 270° | - | - |
| 1787537434 | 31.11° C | 78% | 1001.8 hPa | - | 2.68 m/s, 270° | - | - |
| 1787536533 | 30.56° C | 78% | 1001.7 hPa | - | 1.79 m/s, 270° | - | - |
| 1787535632 | 31.11° C | 81% | 1001.7 hPa | - | 2.68 m/s, 0° | - | - |
| 1787534733 | 31.11° C | 81% | 1001.7 hPa | - | 2.68 m/s, 315° | - | - |
| 1787533834 | 31.11° C | 81% | 1001.7 hPa | - | 2.68 m/s, 270° | - | - |
| 1787532932 | 30° C | 79% | 1001.7 hPa | - | 1.34 m/s, 270° | - | - |
| 1787532034 | 30° C | 80% | 1001.5 hPa | - | 0.89 m/s, 270° | - | - |
| 1787531133 | 30° C | 81% | 1001.3 hPa | - | 1.34 m/s, 270° | - | - |
| 1787530232 | 30° C | 82% | 1001.2 hPa | - | 0.45 m/s, 270° | - | - |
| 1787529333 | 29.44° C | 86% | 1001.1 hPa | - | 1.34 m/s, 270° | - | - |
| 1787528433 | 29.44° C | 87% | 1001 hPa | - | 1.34 m/s, 315° | - | - |
| 1787527532 | 29.44° C | 89% | 1000.7 hPa | - | 2.68 m/s, 270° | - | - |
| 1787526634 | 29.44° C | 89% | 1000.3 hPa | - | 1.34 m/s, 270° | - | - |
| 1787525733 | 28.89° C | 89% | 1000.2 hPa | - | 2.68 m/s, 270° | - | - |
| 1787524831 | 28.89° C | 89% | 1000.2 hPa | - | 3.13 m/s, 270° | - | - |
| 1787523933 | 28.89° C | 87% | 1000.1 hPa | - | 1.79 m/s, 270° | - | - |
| 1787523034 | 28.89° C | 87% | 999.9 hPa | - | 1.79 m/s, 270° | - | - |
* Rain since midnight (hover to see other rain measurements)
** Current wind speed in m/s (hover to see current wind gust speed)